Tracking 28052 objects as of 24-Sep-2023
HD Live streaming from Space Station
objects crossing your sky now

THORAD DELTA 1 DEB

Track THORAD DELTA 1 DEB now!
10-day predictions


NORAD ID: 37148
Int'l Code: 1974-089FH
Perigee: 894.4 km
Apogee: 980.0 km
Inclination: 101.7 °
Period: 103.6 minutes
Semi major axis: 7308 km
RCS: 0.0531 m2 (small)
Launch date: November 15, 1974
Source: United States (US)
Launch site: AIR FORCE WESTERN TEST RANGE (AFWTR)

Note: This is SATELLITE DEBRIS
Your satellite tracking list
Your tracking list is empty




NASA's NSSDC Master Catalog

Two Line Element Set (TLE):
1 37148U 74089FH  23267.59552988  .00019218  00000-0  15488-1 0  9990
2 37148 101.7090 145.2760 0058584  48.8093 341.7129 13.89601247656049
Source of the keplerian elements: AFSPC